LiveATC.Net - Listen to live air traffic control over the Internet!


ICAO: CYQR  IATA: YQR   Airport: Regina International Airport
City: Regina   State/Province: Saskatchewan
Country: Canada   Continent: North America
CYQR METAR Weather: CYQR 050000Z 35003KT 15SM BKN043 BKN072 BKN130 M06/M08 A2977 RMK SC5AC1AC1 SLP118
CYQR ADS-B Flight Tracking  (ADSBExchange)
CYQR Flight Activity (FlightAware)

CYQR Gnd/Twr/Center
Feed Status: UP   Listeners: 0
Listen in your browser - HTML5 player (in browser, HTML5)
Click here to listen with your own player (launches your MP3 player)
Archive Access: CYQR Gnd/Twr/Center
FacilityFrequency
Regina Ground121.900
Regina Tower118.600
Winnipeg Centre120.100
Winnipeg Centre (Great Plains Sector)123.800

NOTICE

Unauthorized use prohibited. See LiveATC.net Terms of Service


Airport/ARTCC Code
Frequency Search
(e.g., 124.400, 128.75)
Site-wide search
 


Browse Feeds
Top 50 Feeds
HF Oceanic Feeds
Coverage Map
Bad Weather Areas

LiveATC FAQ
Offer LiveATC feed
Contact LiveATC.net
Press Inquiries

LiveATC on iPhone
LiveATC on Android

LiveATC Mobile
(Mobile browser)

ATC Audio Archives
Interesting Recordings

LiveATC Forums


Home Page
About LiveATC.net


Terms of Use
Privacy Policy

AIRMETs/SIGMETs

FAA Airport Status
NAS Status
Arrival Demand


Server Software By:
Icecast.org
Liquidsoap